TimeCST,TemperatureF,Dew PointF,Humidity,Sea Level PressureIn,VisibilityMPH,Wind Direction,Wind SpeedMPH,Gust SpeedMPH,PrecipitationIn,Events,Conditions,WindDirDegrees,DateUTC
12:53 AM,35.1,27.0,72,30.34,10.0,North,12.7,-,N/A,,Overcast,10,2013-02-15 06:53:00
1:53 AM,33.1,24.1,70,30.35,10.0,NNE,11.5,-,N/A,,Overcast,20,2013-02-15 07:53:00
2:53 AM,30.0,21.0,69,30.36,10.0,North,8.1,-,N/A,,Clear,10,2013-02-15 08:53:00
3:53 AM,26.1,21.9,84,30.38,10.0,Calm,Calm,-,N/A,,Clear,0,2013-02-15 09:53:00
4:53 AM,26.1,21.0,81,30.40,10.0,North,4.6,-,N/A,,Clear,360,2013-02-15 10:53:00
5:53 AM,25.0,19.9,81,30.40,10.0,North,5.8,-,N/A,,Clear,10,2013-02-15 11:53:00
6:53 AM,26.1,19.0,75,30.42,10.0,North,5.8,-,N/A,,Mostly Cloudy,10,2013-02-15 12:53:00
7:53 AM,26.1,18.0,71,30.43,10.0,NNE,5.8,-,N/A,,Overcast,20,2013-02-15 13:53:00
8:53 AM,28.0,18.0,66,30.45,10.0,NNE,8.1,-,N/A,,Overcast,20,2013-02-15 14:53:00
9:53 AM,30.0,17.1,59,30.47,10.0,North,6.9,-,N/A,,Mostly Cloudy,10,2013-02-15 15:53:00
10:53 AM,33.1,18.0,54,30.45,10.0,Variable,5.8,-,N/A,,Scattered Clouds,0,2013-02-15 16:53:00
11:53 AM,35.1,19.0,52,30.43,10.0,NNE,4.6,-,N/A,,Scattered Clouds,30,2013-02-15 17:53:00
12:53 PM,37.0,19.9,50,30.40,10.0,Calm,Calm,-,N/A,,Overcast,0,2013-02-15 18:53:00
1:53 PM,37.9,21.0,51,30.38,10.0,South,3.5,-,N/A,,Overcast,180,2013-02-15 19:53:00
2:53 PM,39.0,19.0,45,30.37,10.0,Calm,Calm,-,N/A,,Overcast,0,2013-02-15 20:53:00
3:53 PM,42.1,19.9,41,30.36,10.0,South,4.6,-,N/A,,Partly Cloudy,180,2013-02-15 21:53:00
4:53 PM,42.1,19.9,41,30.34,10.0,Calm,Calm,-,N/A,,Clear,0,2013-02-15 22:53:00
5:53 PM,39.0,21.9,50,30.32,10.0,SSW,4.6,-,N/A,,Clear,210,2013-02-15 23:53:00
6:53 PM,35.1,25.0,67,30.30,10.0,South,9.2,-,N/A,,Mostly Cloudy,180,2013-02-16 00:53:00
7:53 PM,36.0,30.0,79,30.39,3.0,North,15.0,-,0.00,Snow,Light Snow,350,2013-02-16 01:53:00
8:01 PM,33.8,30.2,87,30.34,2.0,NNE,10.4,-,0.00,Snow,Light Snow,20,2013-02-16 02:01:00
8:13 PM,33.8,32.0,93,30.34,3.0,NE,5.8,-,0.00,Snow,Light Snow,50,2013-02-16 02:13:00
8:31 PM,33.8,32.0,93,30.33,9.0,East,4.6,-,0.00,,Overcast,100,2013-02-16 02:31:00
8:53 PM,32.0,30.9,96,30.39,10.0,ESE,4.6,-,0.00,,Overcast,120,2013-02-16 02:53:00
9:14 PM,32.0,30.2,93,30.33,10.0,East,4.6,-,N/A,,Mostly Cloudy,90,2013-02-16 03:14:00
9:23 PM,32.0,30.2,93,30.32,10.0,ESE,5.8,-,N/A,,Mostly Cloudy,110,2013-02-16 03:23:00
9:50 PM,32.0,30.2,93,30.35,10.0,NNE,9.2,-,N/A,,Mostly Cloudy,30,2013-02-16 03:50:00
9:53 PM,32.0,30.9,96,30.41,10.0,NNE,8.1,-,N/A,,Mostly Cloudy,30,2013-02-16 03:53:00
10:04 PM,32.0,30.2,93,30.36,9.0,NE,8.1,-,N/A,,Overcast,50,2013-02-16 04:04:00
10:53 PM,30.0,28.9,96,30.41,7.0,Calm,Calm,-,N/A,,Scattered Clouds,0,2013-02-16 04:53:00
11:30 PM,28.4,28.4,100,30.37,1.8,Calm,Calm,-,N/A,,Clear,0,2013-02-16 05:30:00
11:47 PM,28.4,28.4,100,30.37,3.0,Calm,Calm,-,N/A,,Clear,0,2013-02-16 05:47:00
11:53 PM,28.9,28.0,96,30.42,4.0,North,3.5,-,N/A,,Clear,350,2013-02-16 05:53:00